DW4221 Weather Reports


time (UTC)temp
C
wind
direction
speed
KPH
gust
KPH
rain 1hr
cm
rain 24hr
cm
rain mn
cm
humidity
%
barometer
mb
20260508070058 -3 0 0.0 0.0 0.00 0.00 0.00 84 1007.8
20260508064553 -3 0 0.0 0.0 0.00 0.00 0.00 84 1007.9
20260508063050 -3 0 0.0 0.0 0.00 0.00 0.00 82 1008.1
20260508061551 -3 0 0.0 0.0 0.00 0.00 0.00 82 1008.3
20260508060051 -3 0 0.0 0.0 0.00 0.00 0.00 81 1008.4
20260508054602 -2 0 0.0 0.0 0.00 0.00 0.00 80 1008.6
20260508053053 -2 0 0.0 0.0 0.00 0.00 0.00 78 1008.6
20260508051550 -2 0 0.0 0.0 0.00 0.00 0.00 77 1008.6
20260508050051 -2 0 0.0 0.0 0.00 0.00 0.00 76 1008.9
20260508044557 -1 0 0.0 0.0 0.00 0.00 0.00 75 1008.7
20260508043050 -1 0 0.0 0.0 0.00 0.00 0.00 75 1008.9
20260508041551 -1 0 0.0 0.0 0.00 0.00 0.00 73 1009.1
20260508040059 -1 0 0.0 0.0 0.00 0.00 0.00 70 1009.0
20260508034552 0 0 0.0 0.0 0.00 0.00 0.00 69 1009.1
20260508033112 0 0 0.0 0.0 0.00 0.00 0.00 66 1009.2
20260508031549 0 0 0.0 0.0 0.00 0.00 0.00 64 1009.1
20260508030108 1 0 0.0 0.0 0.00 0.00 0.00 63 1009.1
20260508024616 1 0 0.0 0.0 0.00 0.00 0.00 59 1009.1
20260508023051 2 0 0.0 0.0 0.00 0.00 0.00 56 1009.0
20260508021548 3 0 0.0 0.0 0.00 0.00 0.00 53 1009.1
20260508020105 4 0 0.0 0.0 0.00 0.00 0.00 51 1009.1
20260508014556 5 0 0.0 0.0 0.00 0.00 0.00 47 1008.7
20260508013106 5 0 0.0 3.2 0.00 0.00 0.00 45 1008.7
20260508011603 6 0 0.0 3.2 0.00 0.00 0.00 43 1008.6
20260508010105 6 19 0.0 11.3 0.00 0.00 0.00 41 1008.5
20260508004552 7 352 6.4 17.7 0.00 0.00 0.00 40 1008.3
20260508003053 7 12 3.2 17.7 0.00 0.00 0.00 39 1008.4
20260508001559 8 16 3.2 14.5 0.00 0.00 0.00 39 1008.3
20260508000057 8 11 3.2 17.7 0.00 0.00 0.00 37 1008.4
20260507234557 8 305 3.2 17.7 0.00 0.00 0.00 39 1008.3
20260507233055 8 207 3.2 16.1 0.00 0.00 0.00 38 1008.2
20260507231557 9 13 12.9 37.0 0.00 0.00 0.00 36 1008.1
20260507230057 9 286 3.2 22.5 0.00 0.00 0.00 38 1008.5
20260507224555 8 263 3.2 16.1 0.00 0.00 0.00 40 1008.4
20260507223058 8 55 3.2 14.5 0.00 0.00 0.00 39 1008.3
20260507221552 8 0 8.0 17.7 0.00 0.00 0.00 37 1008.4
20260507220055 8 10 3.2 16.1 0.00 0.00 0.00 41 1008.4
20260507214556 8 271 6.4 30.6 0.00 0.00 0.00 40 1008.5
20260507213056 8 259 6.4 20.9 0.00 0.00 0.00 38 1008.6
20260507211554 8 360 4.8 17.7 0.00 0.00 0.00 40 1008.6
20260507210050 9 252 6.4 27.4 0.00 0.00 0.00 40 1008.8
20260507204550 9 297 6.4 25.7 0.00 0.00 0.00 39 1008.7
20260507203053 8 267 6.4 22.5 0.00 0.00 0.00 40 1008.8
20260507201552 8 317 4.8 16.1 0.00 0.00 0.00 46 1009.0
20260507200055 8 254 4.8 14.5 0.00 0.00 0.00 43 1008.9
20260507194556 7 333 3.2 20.9 0.00 0.00 0.00 45 1008.9
20260507193052 7 311 4.8 19.3 0.00 0.00 0.00 45 1008.9
20260507191602 8 360 8.0 17.7 0.00 0.00 0.00 47 1008.8
20260507190055 8 0 3.2 16.1 0.00 0.00 0.00 49 1009.0
20260507184556 7 265 4.8 16.1 0.00 0.00 0.00 52 1009.3
20260507183101 6 11 3.2 12.9 0.00 0.00 0.00 56 1009.4
20260507181555 6 279 4.8 16.1 0.00 0.00 0.00 55 1009.4
20260507180057 6 296 1.6 11.3 0.00 0.00 0.00 54 1009.5
20260507174554 7 246 3.2 16.1 0.00 0.00 0.00 55 1009.5
20260507173103 6 292 4.8 14.5 0.00 0.00 0.00 55 1009.7
20260507171555 6 284 3.2 19.3 0.00 0.00 0.00 55 1009.8
20260507170055 6 292 3.2 14.5 0.00 0.00 0.00 55 1009.7
20260507164554 5 257 3.2 17.7 0.00 0.00 0.00 59 1010.0
20260507163058 6 213 4.8 16.1 0.00 0.00 0.00 54 1009.8
20260507161559 6 241 6.4 19.3 0.00 0.00 0.00 53 1010.1
20260507160057 6 297 4.8 25.7 0.00 0.00 0.00 53 1010.1
20260507154559 6 349 3.2 16.1 0.00 0.00 0.00 56 1010.2
20260507153102 6 279 4.8 17.7 0.00 0.00 0.00 56 1010.2
20260507151552 6 265 4.8 16.1 0.00 0.00 0.00 59 1010.2
20260507150105 6 240 4.8 14.5 0.00 0.00 0.00 59 1010.4
20260507144556 6 257 6.4 22.5 0.00 0.00 0.00 59 1010.5
20260507143105 5 269 3.2 11.3 0.00 0.00 0.00 62 1010.8
20260507141557 5 82 3.2 17.7 0.00 0.00 0.00 64 1010.6
20260507140056 3 14 4.8 14.5 0.00 0.00 0.00 67 1010.9
20260507134601 3 313 6.4 17.7 0.00 0.00 0.00 69 1010.9
20260507133100 3 263 4.8 14.5 0.00 0.00 0.00 72 1010.8
20260507131557 1 276 1.6 6.4 0.00 0.00 0.00 78 1010.8
20260507124556 0 234 1.6 6.4 0.00 0.00 0.00 85 1010.9
20260507123053 -1 0 0.0 0.0 0.00 0.00 0.00 88 1011.0
20260507121601 -2 0 0.0 0.0 0.00 0.00 0.00 91 1011.0
20260507120056 -3 0 0.0 0.0 0.00 0.00 0.00 92 1011.0
20260507114559 -4 0 0.0 0.0 0.00 0.00 0.00 93 1010.9
20260507113052 -5 0 0.0 0.0 0.00 0.00 0.00 92 1010.7
20260507111551 -5 0 0.0 0.0 0.00 0.00 0.00 92 1010.9
20260507110059 -5 0 0.0 0.0 0.00 0.00 0.00 91 1010.7
20260507104555 -5 0 0.0 0.0 0.00 0.00 0.00 90 1010.8
20260507103115 -5 0 0.0 0.0 0.00 0.00 0.00 91 1011.0
20260507101556 -5 0 0.0 0.0 0.00 0.00 0.00 91 1010.7
20260507100110 -5 0 0.0 0.0 0.00 0.00 0.00 90 1010.9
20260507094601 -5 0 0.0 0.0 0.00 0.00 0.00 89 1011.0
20260507093051 -5 0 0.0 0.0 0.00 0.00 0.00 89 1011.1
20260507091556 -4 0 0.0 0.0 0.00 0.00 0.00 89 1011.0
20260507090058 -4 0 0.0 0.0 0.00 0.00 0.00 88 1011.1
20260507084605 -3 0 0.0 0.0 0.00 0.00 0.00 88 1011.0
20260507083056 -3 0 0.0 0.0 0.00 0.00 0.00 88 1011.1
20260507081555 -3 0 0.0 0.0 0.00 0.00 0.00 87 1011.1
20260507080054 -3 0 0.0 0.0 0.00 0.00 0.00 86 1011.2
20260507074602 -3 0 0.0 0.0 0.00 0.00 0.00 86 1011.2
20260507073052 -2 0 0.0 0.0 0.00 0.00 0.00 85 1011.4
20260507071550 -2 0 0.0 0.0 0.00 0.00 0.00 83 1011.5